Regional Weather Roundup
Issued by NWS

Home | Current Version | Previous Version | Text Only | Print | Product List | Glossary Off
Versions: 1 2 3 4 5 6 7 8 9 10 11 12 13 14 15 16 17 18 19 20 21 22 23 24 25 26 27 28 29 30 31 32 33 34 35 36 37 38 39 40 41 42 43 44 45 46 47 48 49 50

000
ASUS43 KIND 261809
RWRIN

WEATHER ROUNDUP FOR INDIANA
NATIONAL WEATHER SERVICE INDIANAPOLIS IN
200 PM EDT MON JUN 26 2017

NOTE: "FAIR" INDICATES FEW OR NO CLOUDS BELOW 12,000 FEET WITH NO
SIGNIFICANT WEATHER AND/OR OBSTRUCTIONS TO VISIBILITY.

* - STATION DOES NOT REPORT WEATHER SUCH AS PRECIPITATION OR FOG.

+ - STATION NOT QUALITY CONTROLLED BY THE NATIONAL WEATHER SERVICE.
    USE DATA WITH CAUTION...ESPECIALLY DEWPOINT AND RELATIVE
    HUMIDITY OBSERVATIONS.

INZ001>003-010>013-019-020-261900-
NORTHWEST INDIANA

CITY           SKY/WX    TMP DP  RH WIND       PRES   REMARKS
GARY /AIRPORT/ PTSUNNY   73  39  29 W17G30    30.08F
KNOX *+        CLOUDY    70  34  26 W13G20    30.08S
LA PORTE +     CLOUDY    68  44  42 NW13G20   30.09F
6HR MIN TEMP:  57; 6HR MAX TEMP:  70;

MICHIGAN CITY+ MOSUNNY   70  46  43 NW9       30.08F
MONTICELLO +   CLOUDY    67  42  40 W13       30.12R
6HR MIN TEMP:  57; 6HR MAX TEMP:  72;

VALPARAISO     CLOUDY    71  45  39 W13       30.08F
6HR MIN TEMP:  58; 6HR MAX TEMP:  74;


$$

LMZ046-743>745-261900-
SOUTHERN LAKE MICHIGAN

STATION/POSITION TIME  TEMP    WIND        PRES    WAVE
                       AIR SEA DIR/SP/G            HT
                 (UTC) (F)     (DEG/KT/KT) (MB)    (FT)
BURNS HARBOR     1740   66     290/  7/ 11 1019.0F
MICHIGAN CITY    1740   66     280/  7/  8   N/A
5NW MICH CITY    1800   65 66  340/  6/  8   N/A     2

$$

INZ004-005-014>016-021>024-261900-
NORTH CENTRAL INDIANA

CITY           SKY/WX    TMP DP  RH WIND       PRES   REMARKS
ELKHART        MOSUNNY   70  41  35 W15G24    30.07F
GOSHEN         PTSUNNY   70  41  34 W14G24    30.07F
6HR MIN TEMP:  57; 6HR MAX TEMP:  71;

LOGANSPORT +   CLOUDY    68  45  42 W13       30.12R
PERU/GRISSOM   CLOUDY    70  46  42 W13G22    30.10S
6HR MIN TEMP:  58; 6HR MAX TEMP:  71;

ROCHESTER +    CLOUDY    73  43  33 W15G23    30.10S
SOUTH BEND     MOSUNNY   70  45  40 W18       30.07F
6HR MIN TEMP:  56; 6HR MAX TEMP:  70;

WARSAW +       CLOUDY    66  43  42 W13G20    30.08F

$$

INZ006>009-017-018-025>027-261900-
NORTHEAST INDIANA

CITY           SKY/WX    TMP DP  RH WIND       PRES   REMARKS
AUBURN +       MOSUNNY   68  43  40 W14G20    30.08S
FORT WAYNE     CLOUDY    69  44  40 W15G22    30.09F
6HR MIN TEMP:  57; 6HR MAX TEMP:  71;

HUNTINGTON +   PTSUNNY   67  47  48 W10       30.10S
6HR MIN TEMP:  56; 6HR MAX TEMP:  69;

KENDALLVILLE + PTSUNNY   69  44  40 W12G21    30.07F

$$

INZ028-029-035-036-043>045-051>053-261900-
WEST CENTRAL INDIANA

CITY           SKY/WX    TMP DP  RH WIND       PRES   REMARKS
CRAWFORDSVL +  PTSUNNY   71  47  42 W14G21    30.14F
6HR MIN TEMP:  55; 6HR MAX TEMP:  71;

GREENCASTLE +  CLOUDY    70  46  43 W5        30.16F
LAFAYETTE      CLOUDY    69  47  45 W13       30.12S
6HR MIN TEMP:  55; 6HR MAX TEMP:  71;

TERRE HAUTE    PTSUNNY   73  48  41 W12G22    30.15F
6HR MIN TEMP:  58; 6HR MAX TEMP:  74;


$$

INZ030>032-037>040-046>048-054>057-064-065-261900-
CENTRAL INDIANA

CITY           SKY/WX    TMP DP  RH WIND       PRES   REMARKS
ANDERSON         N/A     72  48  43 MISG        N/A
CP ATTERBURY + PTSUNNY   72  46  40 W9G17     30.16R
COLUMBUS       PTSUNNY   72  39  30 W12       30.16S
FRANKFORT +    CLOUDY    71  46  41 W16G23    30.15R
6HR MIN TEMP:  59; 6HR MAX TEMP:  74;

GREENWOOD *+   PTSUNNY   71  47  41 W8        30.16R
6HR MIN TEMP:  58; 6HR MAX TEMP:  72;

INDIANAPOLIS   PTSUNNY   73  49  42 W15       30.14S
6HR MIN TEMP:  59; 6HR MAX TEMP:  74;

-EAGLE CREEK   CLOUDY    71  46  40 VRB6      30.13S
6HR MIN TEMP:  60; 6HR MAX TEMP:  72;

KOKOMO +       PTSUNNY   71  46  40 W17       30.12F
6HR MIN TEMP:  58; 6HR MAX TEMP:  71;

MARION +       MOSUNNY   70  46  43 W17G25    30.12S
MT COMFORT *+  PTSUNNY   72  48  43 W15G21    30.14S
SHELBYVILLE    PTSUNNY   73  48  41 W15       30.14S
6HR MIN TEMP:  60; 6HR MAX TEMP:  74;

ZIONSVILLE +   PTSUNNY   70  48  46 W14G20    30.14S
6HR MIN TEMP:  56; 6HR MAX TEMP:  70;


$$

INZ033-034-041-042-049-050-058-059-261900-
EAST CENTRAL INDIANA

CITY           SKY/WX    TMP DP  RH WIND       PRES   REMARKS
MUNCIE         MOSUNNY   71  46  40 W10G20    30.11F
6HR MIN TEMP:  60; 6HR MAX TEMP:  72;

RICHMOND +     MOSUNNY   66  45  45 NW13      30.14F

$$

INZ060-061-067>069-081>083-085>088-261900-
SOUTHWEST INDIANA

CITY           SKY/WX    TMP DP  RH WIND       PRES   REMARKS
EVANSVILLE     SUNNY     77  47  34 VRB7      30.18F
6HR MIN TEMP:  59; 6HR MAX TEMP:  77;

HUNTINGBURG *+ SUNNY     75  51  43 NW7       30.18F
6HR MIN TEMP:  59; 6HR MAX TEMP:  75;

WASHINGTON +   SUNNY     75  46  35 W12G17    30.17F
6HR MIN TEMP:  58; 6HR MAX TEMP:  75;


$$

INZ062-063-066-070>080-084-089>092-261900-
SOUTH CENTRAL AND SOUTHEAST INDIANA

CITY           SKY/WX    TMP DP  RH WIND       PRES   REMARKS
BEDFORD +      MOSUNNY   75  45  33 W8G17     30.15F
BLOOMINGTON    MOSUNNY   74  47  38 W9G23     30.15F
6HR MIN TEMP:  58; 6HR MAX TEMP:  74;

MADISON *+     MOSUNNY   73  43  33 W9G16     30.18F
NORTH VERNON + MOSUNNY   72  50  46 W8G21     30.17S
SEYMOUR +      MOSUNNY   75  52  43 W12G22    30.15F

$$





USA.gov is the U.S. government's official web portal to all federal, state and local government web resources and services.